Tracking 18980 objects as of 21-Feb-2018
HD Live streaming from Space Station
objects crossing your sky now

FENGYUN 1C DEB

Track FENGYUN 1C DEB now!
10-day predictions


NORAD ID: 30633
Int'l Code: 1999-025ANQ
Perigee: 811.2 km
Apogee: 1,014.4 km
Inclination: 98.4 °
Period: 103.1 minutes
Semi major axis: 7283 km
RCS: 0.025 m2 (small)
Launch date: May 10, 1999
Source: People's Republic of China (PRC)
Launch site: Taiyaun Space Center, China (TSC)

Note: This is SATELLITE DEBRIS
aabbcc
Your satellite tracking list
Your tracking list is empty




NASA's NSSDC Master Catalog

Two Line Element Set (TLE):
1 30633U 99025ANQ 18051.14360490  .00000469  00000-0  33848-3 0  9990
2 30633  98.4297 104.3201 0139467 342.7315  75.3483 13.96579831561602
Source of the keplerian elements: AFSPC